Vorticity
12 10 9 8 9 12 16 19 22 24 24 23 20 17 14 11 9 7 6 4 4 5 9 18 30 37 41 41 38 36 36 40 46 49 48 44 41 41 42 44 45 44 43 42 41 41 41 42 42 41 39 35 31 27 24 22 20 19 18 16 14 13 11 9 9 9 9 9 9
11 9 8 8 10 14 17 21 23 24 24 22 18 15 12 9 7 6 5 4 5 9 17 29 37 40 39 36 33 33 35 41 45 41 33 24 23 27 33 39 43 44 44 42 41 41 41 42 42 41 38 35 31 28 25 22 21 20 19 18 16 14 12 10 9 9 9 9 9
10 8 8 9 12 15 19 22 23 23 22 20 16 13 10 8 7 5 4 4 7 16 27 37 40 38 35 32 31 31 34 38 36 27 16 9 11 16 24 33 40 44 46 45 43 42 42 42 42 40 38 34 31 28 25 23 21 20 20 19 18 16 13 11 10 9 9 9 9
9 8 9 10 13 17 20 22 23 22 20 17 14 11 9 7 6 5 4 5 13 25 35 41 38 35 33 30 28 27 28 30 27 18 8 2 5 11 18 28 36 42 45 46 45 45 45 45 43 41 38 34 31 28 26 24 23 22 21 20 18 16 14 12 11 10 9 9 9
9 9 9 11 14 18 21 22 22 21 19 15 12 9 8 6 5 4 5 8 21 33 40 39 35 32 31 28 23 21 21 23 21 14 5 -0 4 7 14 24 33 39 42 44 45 47 48 48 46 43 39 35 32 30 27 26 24 22 21 20 18 17 15 13 12 11 10 9 9
9 9 9 12 15 18 21 23 22 20 17 13 11 9 7 6 5 4 7 14 28 36 40 38 33 30 28 23 18 17 18 20 18 10 2 2 5 6 11 22 32 37 39 40 42 45 47 50 49 47 43 39 35 32 29 26 24 22 20 19 18 17 15 14 13 12 11 10 10
9 9 10 12 16 19 21 22 21 19 15 12 10 8 7 5 4 5 10 20 32 38 40 38 32 28 24 19 16 16 17 20 17 9 3 6 5 5 9 19 30 35 36 35 36 39 42 46 48 47 45 41 36 32 28 25 22 20 19 19 18 17 16 15 14 13 12 11 11
9 9 10 13 16 19 21 21 20 18 15 12 10 8 6 5 4 6 12 24 36 41 41 37 32 27 21 17 15 16 18 21 18 12 7 7 4 3 6 15 26 31 32 30 30 32 34 37 39 40 39 37 33 29 26 23 21 20 19 19 18 18 17 16 15 14 13 12 11
9 9 10 13 17 20 21 21 19 17 14 11 9 7 6 5 4 7 14 29 39 42 40 36 31 26 21 17 17 17 19 22 22 16 10 6 3 2 4 11 22 27 28 26 25 26 27 29 31 32 32 31 29 27 24 22 21 20 20 20 19 18 17 16 16 15 14 13 12
9 9 10 14 18 20 21 20 19 17 14 10 8 7 6 5 4 8 16 30 40 43 40 34 30 25 21 19 18 18 20 24 26 21 12 5 3 2 3 8 16 22 24 24 23 23 23 24 25 27 28 28 27 26 24 23 22 22 21 21 20 19 18 17 16 15 15 14 13
8 9 11 14 18 20 20 20 18 16 13 10 8 7 5 4 4 8 16 30 42 44 40 33 30 26 22 20 19 20 21 25 29 24 15 7 4 4 5 9 13 17 20 22 22 22 22 22 22 23 25 26 27 26 25 24 23 23 22 22 20 19 18 17 16 16 15 15 14
8 9 11 15 18 20 20 20 18 16 13 10 8 7 5 4 5 8 16 31 43 44 40 34 30 26 23 20 20 21 23 26 27 23 16 10 8 8 9 10 11 13 16 18 20 22 23 23 23 23 24 26 26 27 26 26 25 24 23 23 21 19 18 18 17 16 16 15 14
8 9 11 15 18 20 20 19 17 15 12 10 8 7 5 4 5 8 16 31 42 44 40 35 31 27 24 21 21 22 23 24 22 19 15 13 11 11 10 8 8 9 10 12 15 18 22 24 26 26 26 26 27 27 27 27 26 25 24 23 22 21 20 20 19 18 17 16 15
8 9 11 15 18 20 20 19 17 15 12 10 8 7 5 4 5 8 16 29 40 43 41 37 32 28 24 21 22 22 22 18 15 13 12 13 11 9 6 3 3 4 6 7 8 11 15 20 24 26 28 28 27 26 26 26 26 25 25 24 23 22 22 22 21 20 19 17 16
8 9 12 15 18 19 20 18 16 14 12 10 8 7 5 5 5 8 15 28 38 43 42 38 33 29 25 22 22 22 20 13 7 7 8 10 7 4 1 0 -0 1 2 3 4 5 7 10 14 18 21 23 24 24 23 23 24 24 24 23 22 21 21 21 21 20 19 17 16
8 9 11 15 18 19 19 18 16 14 12 10 8 7 6 5 5 8 14 25 36 42 42 39 34 30 26 24 23 22 18 10 3 3 5 7 4 2 0 0 -1 -0 0 2 2 2 3 3 5 7 9 12 15 17 19 20 22 23 23 22 20 19 19 19 20 20 19 17 16
8 9 11 15 17 19 19 18 16 14 12 10 8 7 6 5 5 7 13 22 34 41 43 40 35 31 27 24 24 22 18 10 3 3 5 6 4 2 1 2 1 0 -0 1 2 2 3 2 2 2 2 3 5 7 10 14 18 20 22 22 20 18 17 17 18 18 18 17 17
8 9 11 14 17 18 18 17 16 14 12 10 8 7 6 5 5 7 11 19 31 40 44 42 37 32 28 25 24 22 19 12 6 4 5 6 4 3 3 3 3 2 1 -0 0 2 3 4 4 3 2 1 1 2 4 7 11 15 18 21 21 20 19 18 18 17 17 16 16
8 9 11 14 16 18 18 17 16 14 12 10 8 7 6 5 5 6 10 16 28 38 44 44 39 34 30 26 24 23 20 15 8 5 4 5 3 3 3 3 3 3 2 1 -0 -0 1 3 5 6 6 5 3 3 3 5 7 10 14 18 20 21 21 21 20 18 17 15 15
8 9 10 13 16 17 18 18 16 14 12 10 8 7 6 6 5 6 9 13 23 34 42 45 42 37 32 28 25 23 21 18 12 7 4 4 2 2 3 4 3 3 3 2 1 0 -0 1 4 6 7 7 6 5 4 4 5 7 11 14 17 18 19 21 20 19 18 16 16
8 8 10 12 15 17 17 17 16 15 13 11 9 7 6 6 6 6 8 11 19 29 38 45 44 41 36 30 27 24 23 20 15 10 5 3 3 3 3 3 3 2 2 2 2 2 2 3 4 6 6 6 5 4 3 3 3 4 7 10 13 15 16 18 18 18 17 17 17
8 8 9 11 14 16 17 17 17 15 13 11 9 7 6 6 6 6 7 9 15 24 33 42 45 43 39 34 29 26 23 22 19 14 9 5 3 2 2 3 3 2 1 0 2 3 5 7 6 6 6 7 7 5 3 2 2 3 4 7 9 12 14 16 16 16 16 16 17
8 8 9 10 13 15 16 17 17 16 14 12 9 8 6 6 5 6 6 8 13 20 28 37 43 44 42 38 33 28 25 23 21 18 14 9 5 2 1 2 3 2 1 -0 0 2 5 10 10 8 6 7 10 9 7 4 3 3 4 5 7 9 12 14 15 16 15 15 16
8 8 8 9 12 14 16 17 17 16 15 13 10 8 7 6 5 5 6 7 11 16 24 32 39 43 44 41 36 32 28 25 23 21 19 15 11 6 3 2 2 2 1 0 -0 -0 2 6 13 14 10 7 10 11 11 8 6 4 4 4 6 8 10 11 13 15 15 16 16
8 7 7 9 11 13 15 16 17 16 15 13 11 9 7 6 6 5 5 6 9 13 19 27 34 40 43 43 40 35 31 27 25 23 22 20 17 13 9 6 4 3 2 1 1 -0 -1 -0 7 14 17 12 10 11 11 10 7 5 4 4 5 7 8 9 11 12 14 16 17
8 7 7 8 10 12 15 16 16 16 15 14 12 10 8 6 6 6 5 5 7 10 15 22 29 36 40 43 41 38 34 30 27 25 23 22 21 19 16 12 8 5 4 3 2 1 -0 -2 -1 5 12 16 14 13 13 11 8 5 4 4 5 6 7 8 9 10 11 14 17
8 7 7 7 10 12 14 15 16 16 15 14 12 11 9 7 6 6 5 5 6 8 11 17 25 31 37 41 42 41 37 32 29 26 24 23 22 21 20 18 14 11 8 7 6 5 3 1 -2 -2 0 6 11 15 17 17 13 8 5 4 4 5 6 7 8 8 10 12 15
8 7 7 7 9 11 13 14 15 16 15 14 13 11 9 8 7 6 6 5 5 6 9 13 20 26 32 38 42 42 40 36 31 28 25 23 22 21 21 20 18 15 15 18 17 14 11 7 4 1 -2 -3 1 7 13 19 18 15 11 7 5 5 5 6 7 8 9 11 13
8 7 7 7 9 10 12 14 15 16 15 15 13 12 10 9 7 7 6 5 5 6 7 9 14 20 27 34 39 41 42 40 36 31 27 24 23 21 20 20 19 15 14 22 26 25 21 17 13 9 5 2 0 1 4 9 14 16 15 13 10 9 8 7 8 8 9 10 13
9 8 7 7 8 9 11 13 14 15 15 15 14 12 11 9 8 7 6 6 6 6 6 6 10 15 22 28 33 38 41 43 40 36 31 27 25 23 22 21 22 15 9 14 21 25 26 25 21 17 13 10 7 6 5 5 7 9 11 12 12 12 11 10 9 9 10 11 12
9 8 7 7 7 8 10 11 13 15 15 15 14 13 11 10 8 7 7 7 6 6 6 6 9 12 16 21 27 32 37 41 42 40 37 32 28 25 24 23 24 17 9 5 10 18 24 26 24 22 19 16 13 11 10 8 8 8 9 11 11 12 12 11 10 10 10 11 12
9 9 8 7 7 8 9 10 12 14 15 16 15 14 12 11 9 8 7 7 6 6 6 7 8 9 12 17 22 27 32 36 39 40 40 37 33 29 27 26 25 22 17 12 11 15 20 25 23 22 20 19 17 15 14 13 12 12 12 12 12 12 11 11 10 10 10 10 11
10 9 9 8 7 7 8 9 11 13 15 16 16 15 13 11 9 8 7 7 7 6 6 6 7 8 10 12 17 22 26 31 34 37 39 39 37 33 30 28 27 26 23 18 11 14 21 27 22 19 18 18 18 17 17 16 15 15 14 13 13 12 11 10 9 9 9 10 11
10 10 9 8 8 7 7 8 10 12 14 15 16 15 14 12 10 9 8 7 7 7 7 7 7 7 8 9 12 17 21 26 29 33 35 38 37 36 33 30 28 27 26 25 20 21 26 30 22 17 15 15 16 17 17 17 16 15 15 14 14 12 11 10 9 9 9 10 12
11 10 10 9 8 7 7 7 8 10 13 15 15 16 15 13 12 10 8 7 7 7 7 7 7 7 7 8 10 13 17 21 25 28 31 34 36 36 34 31 29 27 26 25 23 23 26 33 26 19 14 14 15 17 18 18 18 17 16 16 15 14 12 11 10 10 10 11 13
11 11 10 9 8 8 7 7 8 9 11 14 15 15 15 14 13 11 9 7 7 7 7 7 7 7 7 7 9 11 13 17 20 24 27 30 33 34 35 33 30 28 26 25 23 20 22 34 32 24 17 14 16 18 19 20 20 20 20 19 18 17 15 14 13 12 11 12 13
12 11 11 10 9 8 8 7 7 8 10 12 14 15 15 15 13 12 10 9 8 7 7 7 7 7 7 7 7 8 10 13 16 20 23 27 30 32 34 34 32 30 27 25 22 19 20 28 31 28 22 17 18 19 20 20 21 21 21 21 22 21 20 18 16 15 14 13 14
12 12 11 10 9 9 8 7 7 8 9 11 13 15 15 15 14 12 11 10 9 8 7 7 8 8 8 7 7 7 8 10 13 16 19 23 26 29 32 33 33 31 29 27 24 21 18 19 24 26 25 21 20 20 20 20 19 19 20 21 22 23 23 22 21 19 17 16 16
12 12 11 11 10 9 8 8 7 8 8 10 12 14 15 16 15 13 12 11 10 9 8 8 8 8 8 8 7 7 7 8 10 12 15 19 22 25 28 32 33 32 31 29 27 23 20 16 20 24 26 23 21 21 21 20 19 18 18 18 19 21 22 24 24 23 22 20 19
12 12 12 11 10 9 9 8 7 7 8 9 11 13 15 16 15 14 13 11 10 9 9 8 8 8 8 8 8 8 7 7 7 9 11 14 17 21 24 28 31 32 32 32 30 27 24 19 19 21 24 24 21 20 20 20 20 19 18 18 18 18 20 22 23 25 25 24 23
12 12 12 11 11 10 9 8 7 7 7 8 11 13 15 16 15 15 13 12 11 10 9 9 8 8 8 9 9 8 8 7 7 7 8 10 13 17 20 23 26 29 32 32 32 31 28 24 21 20 22 23 22 20 19 19 19 19 19 18 18 18 19 20 22 24 26 27 26
Height
5513 5507 5502 5496 5489 5483 5477 5471 5465 5459 5454 5450 5445 5440 5435 5430 5425 5419 5413 5407 5401 5393 5386 5378 5370 5362 5355 5348 5342 5337 5331 5326 5321 5316 5312 5307 5302 5298 5294 5290 5287 5284 5282 5280 5279 5279 5279 5280 5282 5284 5287 5290 5294 5298 5302 5307 5311 5316 5320 5324 5327 5331 5333 5334 5336 5337 5338 5340 5342
5511 5505 5499 5492 5486 5480 5474 5468 5462 5457 5452 5447 5442 5437 5432 5427 5422 5416 5409 5402 5395 5387 5380 5372 5364 5357 5350 5344 5339 5333 5329 5324 5320 5316 5312 5307 5303 5298 5294 5290 5286 5283 5281 5279 5278 5277 5277 5278 5279 5281 5283 5287 5290 5294 5299 5303 5308 5313 5317 5321 5324 5327 5328 5330 5331 5333 5335 5337 5339
5508 5502 5496 5489 5483 5477 5471 5465 5460 5455 5450 5444 5439 5434 5429 5424 5418 5412 5405 5398 5390 5382 5374 5366 5359 5352 5347 5342 5336 5332 5327 5324 5320 5316 5312 5307 5303 5299 5295 5290 5287 5283 5280 5278 5277 5276 5276 5276 5277 5279 5281 5284 5287 5292 5296 5301 5306 5311 5315 5318 5321 5322 5324 5325 5327 5329 5332 5334 5336
5506 5500 5494 5487 5481 5475 5469 5463 5458 5453 5447 5442 5437 5432 5427 5421 5415 5409 5402 5394 5386 5377 5369 5362 5355 5350 5344 5339 5335 5331 5327 5324 5320 5317 5312 5308 5304 5300 5296 5291 5287 5283 5280 5278 5276 5275 5275 5276 5276 5278 5280 5283 5286 5290 5295 5300 5305 5309 5312 5315 5317 5318 5320 5322 5324 5327 5329 5332 5334
5504 5498 5492 5485 5479 5473 5467 5462 5456 5451 5446 5441 5436 5430 5425 5419 5413 5406 5398 5390 5382 5374 5366 5359 5353 5347 5343 5338 5335 5331 5328 5324 5321 5317 5312 5309 5305 5301 5297 5293 5289 5285 5281 5279 5277 5276 5276 5276 5277 5278 5280 5283 5287 5291 5295 5299 5304 5307 5309 5311 5312 5314 5317 5319 5322 5325 5327 5329 5332
5502 5496 5489 5483 5477 5472 5466 5460 5455 5450 5445 5439 5434 5429 5423 5417 5411 5404 5396 5387 5379 5371 5364 5357 5352 5347 5342 5339 5335 5332 5328 5325 5321 5317 5313 5310 5307 5303 5299 5295 5291 5287 5283 5281 5278 5277 5277 5277 5278 5280 5282 5285 5288 5292 5295 5299 5302 5304 5306 5307 5309 5312 5315 5318 5320 5323 5326 5328 5330
5500 5494 5488 5482 5476 5470 5465 5459 5454 5448 5443 5438 5433 5427 5422 5416 5409 5402 5394 5385 5377 5369 5362 5357 5351 5346 5342 5339 5335 5332 5328 5325 5322 5318 5315 5313 5309 5306 5302 5298 5293 5290 5286 5283 5281 5280 5280 5280 5281 5282 5284 5286 5289 5292 5294 5297 5299 5301 5303 5305 5308 5311 5314 5317 5319 5322 5324 5326 5328
5499 5493 5487 5481 5475 5470 5464 5458 5453 5447 5442 5437 5431 5426 5420 5414 5407 5400 5392 5384 5376 5368 5362 5356 5351 5346 5342 5339 5336 5332 5329 5326 5323 5320 5317 5315 5312 5308 5304 5301 5297 5293 5290 5287 5285 5284 5283 5283 5283 5284 5286 5287 5289 5291 5293 5296 5297 5300 5302 5305 5307 5310 5313 5316 5318 5321 5322 5324 5326
5497 5492 5486 5480 5475 5469 5463 5457 5452 5447 5441 5436 5430 5424 5418 5412 5406 5399 5391 5383 5375 5368 5361 5356 5351 5347 5343 5340 5336 5333 5330 5327 5324 5321 5318 5316 5313 5310 5307 5303 5300 5297 5294 5291 5289 5288 5287 5287 5287 5287 5288 5289 5291 5292 5294 5296 5298 5300 5302 5305 5308 5310 5313 5315 5317 5319 5320 5322 5323
5497 5491 5486 5480 5474 5468 5462 5457 5451 5446 5440 5435 5429 5423 5417 5411 5404 5397 5390 5382 5374 5367 5361 5356 5352 5347 5344 5340 5337 5334 5331 5328 5325 5322 5320 5317 5315 5313 5310 5307 5303 5300 5297 5295 5293 5292 5291 5290 5290 5291 5291 5292 5293 5295 5296 5298 5300 5302 5304 5306 5308 5310 5312 5314 5315 5317 5318 5319 5321
5496 5491 5485 5479 5473 5467 5462 5456 5450 5445 5440 5434 5428 5422 5416 5410 5403 5396 5388 5381 5373 5367 5361 5356 5352 5348 5344 5341 5338 5335 5332 5329 5327 5324 5322 5319 5317 5315 5312 5310 5307 5304 5302 5299 5297 5296 5295 5294 5294 5294 5295 5295 5296 5297 5298 5300 5301 5303 5305 5307 5308 5310 5311 5312 5313 5315 5316 5317 5319
5495 5490 5484 5478 5472 5467 5461 5455 5450 5444 5439 5433 5427 5422 5416 5409 5402 5395 5388 5380 5373 5367 5361 5356 5352 5348 5345 5342 5339 5336 5333 5331 5328 5326 5323 5321 5319 5317 5315 5312 5310 5307 5305 5303 5301 5300 5298 5298 5298 5298 5298 5298 5299 5300 5301 5302 5303 5304 5305 5307 5308 5309 5310 5311 5312 5313 5315 5316 5317
5495 5489 5483 5478 5472 5466 5460 5455 5449 5444 5438 5433 5427 5421 5415 5409 5402 5395 5387 5380 5373 5367 5361 5356 5352 5348 5345 5342 5340 5337 5335 5332 5330 5327 5325 5323 5321 5319 5317 5314 5312 5310 5308 5307 5305 5304 5302 5302 5302 5302 5301 5301 5302 5302 5302 5303 5304 5305 5306 5307 5308 5309 5310 5310 5311 5312 5313 5314 5316
5494 5488 5483 5477 5471 5465 5460 5454 5449 5443 5438 5432 5427 5421 5415 5408 5402 5395 5387 5380 5373 5367 5361 5357 5352 5349 5346 5343 5341 5338 5336 5334 5332 5329 5327 5325 5323 5321 5318 5316 5314 5313 5312 5311 5309 5308 5307 5306 5305 5305 5304 5304 5304 5304 5304 5304 5305 5306 5306 5307 5308 5308 5309 5310 5310 5311 5312 5313 5314
5493 5488 5482 5477 5471 5465 5459 5454 5448 5443 5438 5432 5427 5421 5415 5408 5402 5395 5387 5380 5373 5367 5362 5357 5353 5350 5347 5344 5342 5340 5337 5336 5333 5331 5329 5327 5325 5323 5320 5318 5317 5316 5315 5314 5313 5312 5311 5310 5308 5308 5307 5307 5306 5306 5306 5306 5306 5306 5307 5307 5307 5308 5308 5309 5309 5310 5311 5312 5313
5493 5487 5482 5476 5470 5464 5459 5453 5448 5443 5437 5432 5427 5421 5415 5408 5402 5395 5387 5380 5373 5367 5362 5357 5354 5350 5347 5345 5343 5341 5339 5337 5335 5333 5331 5328 5327 5324 5322 5320 5319 5318 5317 5317 5316 5314 5313 5312 5312 5311 5310 5309 5309 5308 5308 5308 5307 5307 5307 5307 5307 5307 5308 5308 5309 5309 5311 5312 5313
5492 5487 5481 5476 5470 5464 5458 5453 5447 5442 5437 5432 5426 5421 5415 5408 5402 5395 5388 5381 5374 5368 5362 5358 5354 5351 5348 5346 5344 5342 5340 5338 5336 5334 5332 5330 5328 5326 5324 5322 5321 5320 5318 5318 5317 5316 5315 5314 5314 5313 5312 5312 5311 5311 5310 5310 5309 5308 5308 5308 5307 5307 5307 5308 5308 5309 5310 5311 5312
5492 5487 5481 5475 5470 5464 5458 5453 5447 5442 5437 5432 5426 5421 5415 5408 5402 5396 5389 5382 5375 5369 5363 5359 5355 5352 5349 5347 5345 5343 5341 5339 5337 5335 5333 5331 5329 5327 5326 5324 5323 5321 5319 5319 5318 5317 5317 5316 5315 5315 5314 5313 5313 5312 5312 5311 5310 5310 5309 5308 5308 5308 5308 5308 5308 5308 5309 5310 5311
5492 5486 5481 5475 5470 5464 5458 5453 5447 5442 5437 5432 5426 5421 5415 5409 5403 5397 5390 5383 5377 5371 5365 5360 5356 5352 5349 5347 5345 5343 5342 5340 5338 5336 5334 5332 5330 5328 5327 5325 5324 5323 5321 5320 5319 5318 5318 5317 5317 5316 5316 5315 5314 5314 5313 5312 5311 5311 5310 5309 5309 5308 5308 5308 5308 5308 5309 5309 5309
5491 5486 5481 5475 5470 5464 5458 5453 5447 5442 5437 5432 5426 5421 5415 5410 5404 5397 5391 5385 5378 5372 5366 5361 5357 5353 5350 5348 5346 5344 5342 5341 5339 5337 5335 5333 5331 5330 5328 5327 5325 5324 5323 5322 5321 5320 5319 5318 5318 5317 5317 5316 5315 5315 5314 5313 5312 5311 5311 5310 5309 5309 5309 5308 5308 5308 5308 5309 5309
5491 5486 5481 5475 5469 5464 5458 5453 5447 5442 5437 5432 5426 5421 5416 5410 5405 5399 5393 5387 5380 5373 5368 5362 5358 5354 5351 5348 5346 5344 5343 5341 5339 5337 5336 5334 5332 5331 5329 5328 5327 5325 5324 5323 5322 5321 5320 5319 5319 5318 5317 5317 5316 5315 5314 5314 5313 5312 5311 5311 5310 5309 5309 5309 5308 5308 5308 5308 5309
5491 5486 5481 5475 5469 5464 5458 5453 5448 5442 5437 5432 5427 5422 5417 5411 5406 5400 5394 5388 5382 5375 5369 5364 5360 5356 5352 5349 5347 5345 5343 5342 5340 5338 5337 5335 5333 5332 5330 5329 5328 5327 5325 5324 5323 5322 5321 5320 5319 5319 5318 5317 5317 5316 5315 5314 5313 5312 5312 5311 5311 5310 5309 5309 5309 5308 5308 5308 5309
5491 5486 5481 5475 5470 5464 5458 5453 5448 5443 5437 5432 5427 5422 5417 5412 5407 5401 5396 5390 5383 5377 5372 5366 5361 5357 5353 5350 5347 5345 5343 5342 5340 5339 5337 5336 5334 5332 5331 5330 5329 5328 5327 5325 5324 5322 5322 5321 5320 5319 5319 5318 5317 5316 5316 5315 5314 5313 5312 5312 5311 5310 5310 5309 5309 5309 5308 5308 5308
5491 5486 5481 5475 5470 5464 5459 5453 5448 5443 5438 5433 5428 5423 5418 5413 5408 5402 5397 5392 5386 5380 5373 5368 5363 5358 5354 5351 5348 5346 5344 5342 5340 5339 5337 5336 5335 5333 5332 5331 5330 5329 5327 5326 5325 5323 5322 5321 5321 5320 5319 5318 5317 5317 5316 5315 5314 5313 5312 5312 5311 5310 5310 5309 5309 5309 5308 5308 5308
5491 5486 5481 5476 5470 5465 5459 5454 5449 5444 5439 5434 5429 5424 5419 5414 5409 5404 5398 5393 5387 5382 5376 5370 5365 5360 5356 5352 5349 5347 5344 5342 5340 5339 5337 5336 5335 5334 5333 5332 5330 5329 5328 5327 5326 5324 5323 5322 5321 5320 5319 5318 5317 5317 5316 5315 5314 5313 5313 5312 5311 5310 5310 5309 5309 5309 5308 5308 5308
5491 5487 5482 5476 5471 5465 5460 5455 5450 5445 5440 5435 5430 5425 5420 5415 5410 5405 5400 5394 5389 5384 5378 5372 5367 5362 5357 5353 5350 5347 5345 5342 5341 5339 5337 5336 5335 5334 5333 5332 5331 5329 5328 5327 5326 5325 5323 5322 5321 5320 5319 5318 5317 5317 5316 5315 5314 5313 5312 5312 5311 5311 5310 5309 5309 5308 5308 5308 5307
5492 5487 5482 5477 5471 5466 5461 5455 5450 5445 5441 5436 5431 5427 5422 5417 5411 5406 5401 5396 5391 5386 5381 5375 5370 5365 5360 5355 5352 5348 5345 5343 5341 5339 5337 5336 5334 5333 5332 5332 5331 5330 5329 5327 5326 5325 5324 5322 5321 5320 5319 5318 5317 5317 5316 5315 5314 5313 5312 5312 5311 5310 5310 5309 5309 5308 5308 5307 5307
5492 5487 5482 5477 5472 5467 5462 5456 5451 5446 5442 5437 5432 5427 5423 5418 5413 5408 5403 5398 5393 5388 5383 5378 5373 5367 5362 5357 5353 5350 5347 5344 5341 5339 5337 5336 5334 5333 5332 5331 5330 5330 5329 5327 5326 5324 5323 5322 5321 5320 5319 5317 5317 5316 5316 5315 5314 5313 5312 5312 5311 5310 5309 5309 5308 5308 5307 5307 5306
5492 5488 5483 5478 5473 5467 5462 5457 5452 5447 5442 5438 5433 5428 5424 5419 5414 5410 5405 5400 5395 5390 5385 5380 5375 5369 5364 5360 5355 5351 5348 5345 5342 5340 5337 5336 5334 5332 5331 5330 5329 5329 5329 5327 5324 5323 5322 5322 5321 5319 5318 5317 5316 5315 5315 5314 5314 5313 5312 5311 5310 5310 5309 5308 5307 5307 5307 5306 5306
5493 5488 5483 5478 5473 5468 5463 5458 5454 5449 5444 5439 5434 5429 5425 5420 5416 5411 5407 5402 5397 5392 5387 5382 5377 5371 5367 5362 5357 5353 5349 5346 5343 5340 5338 5336 5334 5332 5331 5330 5328 5328 5329 5327 5324 5322 5321 5320 5319 5318 5317 5317 5315 5314 5314 5313 5312 5312 5311 5311 5310 5309 5308 5307 5307 5306 5306 5305 5305
5494 5489 5484 5479 5474 5469 5465 5460 5455 5450 5445 5440 5435 5431 5426 5422 5417 5413 5409 5404 5399 5394 5389 5384 5379 5374 5369 5364 5360 5355 5352 5348 5344 5342 5339 5337 5335 5333 5331 5329 5328 5327 5327 5327 5324 5322 5320 5319 5318 5317 5316 5315 5314 5313 5312 5312 5311 5310 5310 5309 5308 5307 5307 5306 5306 5305 5304 5304 5303
5494 5490 5485 5480 5475 5471 5466 5461 5456 5451 5447 5442 5437 5432 5427 5423 5419 5415 5410 5406 5401 5396 5392 5387 5382 5377 5372 5367 5362 5357 5353 5350 5346 5343 5340 5338 5335 5333 5331 5330 5328 5327 5325 5325 5325 5322 5319 5318 5317 5317 5315 5314 5313 5312 5311 5310 5309 5309 5308 5307 5307 5306 5305 5305 5304 5304 5303 5302 5302
5495 5491 5486 5481 5477 5472 5467 5462 5457 5453 5448 5443 5438 5434 5429 5425 5420 5416 5412 5407 5403 5399 5394 5389 5384 5379 5374 5369 5365 5360 5356 5352 5348 5345 5342 5339 5336 5334 5332 5330 5328 5327 5325 5324 5324 5322 5320 5318 5317 5316 5315 5314 5312 5311 5310 5309 5308 5307 5307 5306 5305 5305 5304 5303 5303 5302 5302 5301 5301
5496 5492 5487 5482 5478 5473 5468 5463 5459 5454 5450 5445 5440 5436 5431 5427 5422 5418 5414 5410 5405 5401 5396 5392 5387 5382 5377 5372 5368 5363 5359 5354 5350 5347 5343 5340 5337 5335 5333 5331 5329 5327 5325 5324 5322 5322 5321 5317 5316 5315 5314 5313 5312 5311 5310 5308 5307 5307 5306 5305 5304 5303 5303 5302 5302 5301 5301 5300 5300
5497 5492 5488 5484 5479 5474 5470 5465 5460 5456 5451 5447 5442 5437 5433 5429 5425 5420 5416 5412 5407 5403 5398 5394 5389 5384 5380 5375 5371 5366 5362 5357 5353 5349 5345 5342 5339 5336 5334 5331 5329 5327 5326 5324 5322 5322 5321 5319 5316 5314 5313 5312 5311 5310 5309 5308 5307 5306 5305 5304 5303 5303 5302 5302 5301 5300 5300 5300 5299
5498 5494 5489 5485 5480 5476 5471 5467 5462 5457 5453 5448 5444 5439 5435 5431 5427 5422 5418 5414 5410 5405 5401 5396 5392 5387 5383 5378 5374 5370 5365 5361 5356 5352 5348 5344 5341 5338 5335 5332 5330 5328 5326 5324 5322 5321 5321 5320 5317 5314 5313 5312 5311 5309 5308 5307 5307 5306 5305 5304 5303 5302 5302 5301 5300 5300 5299 5299 5299
5499 5495 5490 5486 5482 5477 5472 5468 5464 5459 5455 5450 5446 5441 5437 5432 5428 5424 5420 5416 5412 5407 5403 5399 5395 5390 5386 5382 5377 5373 5369 5364 5360 5355 5351 5347 5343 5340 5337 5334 5332 5329 5327 5325 5323 5321 5321 5321 5317 5315 5313 5312 5311 5309 5308 5307 5306 5305 5305 5304 5303 5302 5301 5301 5300 5299 5299 5299 5298
5500 5495 5491 5487 5482 5478 5474 5470 5465 5461 5457 5452 5447 5443 5438 5434 5430 5426 5422 5418 5414 5410 5406 5401 5397 5393 5389 5385 5380 5376 5372 5367 5363 5359 5354 5350 5346 5343 5339 5336 5333 5331 5328 5326 5324 5322 5320 5320 5318 5316 5314 5312 5311 5309 5308 5307 5306 5305 5304 5303 5302 5302 5301 5300 5299 5299 5298 5298 5298
5500 5496 5492 5488 5483 5479 5475 5471 5467 5463 5458 5454 5449 5445 5440 5435 5431 5427 5423 5419 5416 5412 5407 5403 5399 5395 5391 5387 5382 5378 5374 5370 5366 5362 5358 5354 5350 5346 5342 5339 5336 5333 5330 5328 5326 5323 5321 5320 5319 5317 5314 5312 5311 5309 5308 5307 5306 5305 5304 5303 5302 5301 5300 5300 5299 5298 5298 5298 5298
5501 5497 5493 5489 5484 5480 5476 5472 5468 5464 5460 5456 5451 5447 5442 5437 5433 5429 5425 5421 5417 5413 5409 5405 5401 5397 5393 5389 5385 5381 5377 5372 5368 5365 5361 5357 5353 5349 5346 5342 5339 5336 5333 5330 5328 5325 5323 5321 5320 5318 5316 5313 5311 5310 5308 5307 5306 5305 5304 5303 5302 5301 5300 5299 5298 5298 5297 5297 5297
5501 5497 5493 5489 5485 5482 5477 5473 5470 5466 5462 5457 5453 5449 5444 5440 5435 5431 5426 5422 5418 5414 5411 5407 5403 5399 5395 5391 5387 5383 5379 5375 5371 5367 5363 5359 5355 5352 5348 5345 5342 5339 5336 5333 5331 5328 5325 5323 5320 5319 5317 5314 5312 5310 5308 5307 5306 5305 5304 5303 5302 5301 5300 5299 5298 5297 5297 5297 5297